Temp
74 82 84 80 65 65 62 66 75 69 69 76 75 75 74 73 71 62 72 73 74 72 74 70 67 68 69 69 69 69 70 70 70 70 70 71 72 73 73 73 74 75 77 79 79 79 78 77 77
82 80 80 77 61 59 64 74 67 73 74 74 72 72 72 70 70 65 66 72 74 73 73 69 66 67 67 67 68 68 68 69 69 69 69 69 70 71 71 72 72 73 76 77 78 79 78 76 76
77 79 73 68 64 59 64 69 72 73 71 72 71 71 73 68 69 69 72 72 72 72 71 66 64 66 66 66 66 66 67 67 67 67 68 68 68 69 69 69 70 72 73 75 77 78 77 76 76
77 77 75 62 61 68 68 72 72 69 70 71 73 69 68 69 71 73 71 72 71 70 69 63 62 64 64 64 64 65 65 65 65 66 66 66 66 67 67 68 68 69 71 72 74 75 76 75 75
78 75 62 60 63 70 71 72 72 70 71 71 71 68 68 67 71 71 70 71 70 69 68 64 60 61 62 62 62 62 63 63 63 64 64 64 64 64 65 66 67 67 68 69 71 72 73 73 74
69 71 60 58 65 72 70 73 71 70 73 71 67 69 69 69 68 69 70 71 71 67 65 64 58 57 58 59 59 60 61 61 61 61 61 61 62 62 63 64 65 66 67 67 68 70 71 72 72
65 64 60 63 64 66 70 71 68 70 70 70 71 66 67 64 69 70 70 70 69 67 65 64 63 61 59 56 56 56 57 57 58 58 58 58 59 61 62 61 63 64 65 66 66 67 68 70 71
69 66 60 63 62 63 67 66 66 67 69 70 72 66 67 68 69 68 68 68 68 65 64 63 63 62 63 62 53 54 55 55 56 57 57 57 60 62 62 62 61 61 63 64 65 66 67 68 69
69 59 58 62 61 64 65 62 67 68 66 66 69 68 66 70 66 65 64 64 65 64 63 63 61 61 61 62 60 58 58 58 58 58 57 58 61 61 61 59 58 59 60 61 63 65 66 65 65
62 58 61 65 66 63 65 63 66 62 64 65 66 68 64 66 62 61 60 61 62 62 62 62 61 59 60 63 60 60 61 60 60 59 59 58 59 60 59 58 59 60 60 62 64 66 65 64 72
62 57 61 64 64 63 62 62 66 62 61 69 67 69 63 63 62 62 62 64 64 65 63 60 59 59 58 58 58 60 60 59 59 59 57 58 59 59 60 60 61 61 60 64 65 65 68 69 69
54 62 63 62 60 58 58 64 60 62 66 67 71 71 67 62 62 63 64 63 64 63 62 59 57 58 57 58 58 58 57 57 58 57 58 57 57 57 57 58 59 59 60 60 62 63 64 65 66
54 60 61 61 59 58 60 57 59 61 69 71 69 64 65 64 64 65 66 66 63 60 61 58 56 56 56 56 56 56 55 55 55 56 57 56 55 55 56 57 58 59 59 60 60 61 62 63 64
55 55 57 59 59 60 53 57 56 62 69 66 68 65 64 65 66 65 64 63 61 60 58 56 54 54 55 55 54 54 55 54 54 54 55 54 54 54 55 56 56 57 59 59 58 58 59 61 63
55 49 57 59 58 55 54 50 52 63 66 61 64 65 65 65 65 64 64 61 61 59 57 53 53 52 52 52 53 53 54 53 53 53 53 53 53 53 53 54 55 57 58 57 57 58 60 60 63
50 53 48 53 52 52 51 49 64 62 61 61 62 65 65 64 63 63 64 62 61 58 53 52 52 49 49 50 51 52 53 53 52 53 53 52 52 52 52 52 54 56 56 55 56 56 57 58 60
51 45 50 53 53 51 49 49 61 60 59 59 63 65 64 63 62 61 61 60 58 56 53 50 50 48 47 49 49 50 51 51 52 52 52 51 51 51 50 50 52 53 53 54 54 53 54 55 57
45 46 48 48 53 50 48 48 56 61 61 61 63 64 65 64 62 61 57 57 56 54 51 49 48 47 47 47 48 50 51 51 52 51 50 49 49 49 49 50 51 52 52 52 50 48 51 52 54
46 43 42 49 55 47 46 48 53 59 59 60 61 62 62 61 51 54 52 51 50 50 49 47 46 47 46 45 44 45 45 47 48 49 48 48 48 48 48 49 50 50 50 51 52 50 48 48 53
44 41 42 49 47 43 45 44 51 55 57 57 55 54 53 51 47 47 48 48 48 48 46 46 45 45 44 44 44 43 43 45 46 47 47 48 47 47 47 47 46 46 46 47 48 48 46 47 52
43 40 41 40 44 47 43 44 49 50 51 49 50 49 49 49 46 44 44 45 46 46 46 44 43 43 43 43 42 43 44 45 45 47 47 47 46 46 45 45 43 42 43 44 46 46 45 43 49
33 42 40 38 35 34 42 29 46 54 50 48 48 49 48 47 46 46 45 44 44 44 43 42 41 41 42 41 40 39 39 38 42 42 44 44 45 44 44 43 42 41 41 42 43 47 46 45 43
37 41 39 38 33 31 38 30 45 49 44 45 47 45 46 44 43 43 43 41 42 41 41 42 41 40 40 39 38 38 37 40 41 41 41 42 43 43 41 40 40 40 41 40 41 41 42 44 43
42 38 39 37 33 24 31 33 42 40 38 45 48 47 43 43 43 43 42 39 40 41 40 40 39 38 39 38 37 36 35 36 36 37 37 38 39 39 39 39 38 38 38 38 39 40 40 40 41
37 34 29 26 23 28 31 30 39 42 42 41 40 42 40 43 43 43 42 41 40 39 39 38 37 35 36 35 35 35 34 34 34 34 35 35 34 34 35 36 36 36 37 38 39 38 37 38 38
35 32 29 23 26 30 31 28 36 38 37 34 36 34 44 44 43 40 39 38 38 37 37 36 35 34 34 33 33 34 33 33 34 35 34 33 32 32 33 33 33 34 36 36 36 35 35 35 35
31 28 34 27 23 23 33 38 40 41 38 39 36 42 42 41 39 36 35 36 35 34 34 33 32 32 31 31 31 32 32 32 31 31 31 31 32 32 32 31 32 32 32 32 32 32 32 33 33
33 36 26 28 21 22 32 31 32 34 34 37 34 37 37 39 38 37 36 35 34 33 32 31 30 27 27 28 30 31 31 31 30 29 28 29 30 30 30 31 32 32 32 32 31 32 33 32 32
28 29 29 28 27 23 24 30 30 34 32 31 34 36 37 37 36 35 34 33 29 26 25 25 25 24 24 26 28 29 29 30 29 28 29 29 30 30 30 31 31 30 30 31 31 31 31 31 32
32 30 32 26 23 26 23 29 32 32 32 31 34 36 38 37 34 33 32 29 26 24 24 23 23 23 24 25 26 27 29 29 28 28 29 30 30 31 31 30 30 30 31 31 30 30 30 30 31
MSLP
1013.12 1012.40 1011.71 1010.87 1009.86 1008.04 1006.06 1005.22 1005.37 1005.70 1006.06 1006.31 1006.85 1006.62 1006.93 1007.83 1008.52 1011.54 1013.31 1013.92 1014.33 1014.87 1015.14 1015.66 1015.85 1015.80 1015.72 1015.65 1015.41 1015.28 1015.20 1014.92 1014.86 1014.83 1014.74 1014.54 1014.26 1013.79 1013.55 1013.38 1013.13 1012.83 1012.66 1012.69 1012.77 1012.90 1013.09 1013.24 1013.31
1012.44 1012.25 1011.53 1009.69 1008.68 1006.39 1005.00 1004.56 1005.66 1005.91 1006.55 1007.48 1007.87 1008.02 1008.04 1008.64 1010.55 1012.49 1013.65 1014.22 1014.48 1014.86 1015.30 1015.93 1016.20 1016.11 1016.04 1016.00 1015.86 1015.76 1015.53 1015.42 1015.35 1015.21 1015.05 1014.79 1014.64 1014.32 1013.97 1013.72 1013.46 1013.24 1012.94 1012.87 1012.80 1012.80 1013.04 1013.23 1013.37
1012.81 1012.24 1010.56 1009.03 1007.31 1005.80 1004.80 1005.44 1005.74 1006.63 1007.78 1007.94 1008.14 1008.90 1008.79 1009.85 1011.43 1012.49 1013.41 1014.39 1014.80 1015.17 1015.63 1016.37 1016.41 1016.33 1016.26 1016.30 1016.22 1016.17 1015.95 1015.85 1015.72 1015.46 1015.34 1015.15 1014.97 1014.65 1014.51 1014.23 1013.90 1013.57 1013.39 1013.05 1012.96 1012.92 1013.02 1013.17 1013.24
1012.14 1011.54 1010.54 1008.86 1006.64 1005.90 1005.71 1005.94 1006.83 1007.47 1008.26 1008.62 1008.50 1008.82 1010.48 1011.74 1011.84 1012.67 1014.01 1014.50 1014.86 1015.49 1015.86 1016.64 1016.74 1016.69 1016.61 1016.53 1016.52 1016.46 1016.33 1016.18 1015.99 1015.90 1015.73 1015.46 1015.32 1015.10 1014.80 1014.65 1014.28 1014.13 1013.81 1013.53 1013.24 1013.07 1013.05 1013.07 1013.15
1011.95 1010.63 1009.19 1007.76 1006.51 1005.98 1006.40 1007.02 1007.45 1007.48 1007.63 1008.20 1009.02 1008.89 1010.38 1012.28 1012.97 1013.62 1014.19 1014.51 1014.92 1015.57 1016.07 1016.73 1017.12 1017.04 1016.86 1016.78 1016.75 1016.69 1016.63 1016.52 1016.34 1016.17 1016.03 1015.87 1015.58 1015.38 1015.09 1014.90 1014.61 1014.46 1014.26 1013.85 1013.55 1013.35 1013.21 1013.16 1013.07
1011.12 1010.32 1008.47 1006.92 1005.87 1005.56 1006.87 1007.33 1007.84 1007.87 1007.79 1008.46 1009.19 1009.40 1010.46 1012.29 1013.07 1013.72 1014.28 1014.56 1015.07 1015.77 1016.36 1016.74 1017.35 1017.45 1017.34 1017.26 1017.14 1016.98 1016.94 1016.82 1016.63 1016.45 1016.37 1016.12 1015.87 1015.64 1015.42 1015.24 1014.90 1014.67 1014.52 1014.09 1013.84 1013.63 1013.40 1013.24 1013.14
1010.88 1009.80 1008.00 1006.82 1006.25 1006.22 1006.82 1007.85 1008.03 1008.07 1008.17 1008.54 1009.32 1009.44 1010.91 1012.48 1012.94 1013.64 1014.20 1014.72 1015.25 1015.87 1016.26 1016.66 1016.88 1017.04 1017.18 1017.38 1017.42 1017.40 1017.31 1017.22 1017.08 1017.01 1016.86 1016.52 1016.20 1015.75 1015.47 1015.31 1015.05 1014.89 1014.54 1014.31 1013.99 1013.90 1013.61 1013.36 1013.12
1011.18 1010.04 1008.07 1007.26 1006.67 1006.52 1007.85 1008.62 1009.03 1008.94 1008.46 1009.52 1009.90 1009.45 1010.12 1011.56 1013.09 1013.93 1014.39 1014.83 1015.34 1015.96 1016.33 1016.67 1016.88 1017.02 1017.03 1017.04 1017.61 1017.65 1017.58 1017.55 1017.39 1017.12 1017.03 1016.76 1016.15 1015.74 1015.48 1015.18 1015.16 1015.01 1014.69 1014.40 1014.17 1013.94 1013.56 1013.37 1013.11
1012.01 1010.18 1008.08 1007.35 1007.41 1007.42 1008.98 1009.10 1009.35 1009.87 1009.62 1009.74 1010.01 1010.37 1011.37 1011.80 1013.33 1014.02 1014.49 1014.85 1015.25 1015.83 1016.28 1016.66 1016.89 1017.09 1017.25 1017.18 1017.44 1017.52 1017.48 1017.43 1017.18 1016.95 1016.85 1016.48 1016.18 1015.98 1015.65 1015.49 1015.29 1014.99 1014.78 1014.46 1014.14 1013.84 1013.58 1013.36 1013.04
1011.80 1010.12 1008.45 1008.48 1008.44 1008.79 1009.15 1009.70 1009.33 1009.90 1009.49 1009.31 1009.78 1010.82 1012.01 1012.47 1013.25 1013.55 1013.91 1014.21 1014.77 1015.34 1016.06 1016.54 1016.89 1017.22 1017.34 1017.25 1017.49 1017.45 1017.35 1017.23 1017.07 1016.96 1016.93 1016.73 1016.40 1016.07 1015.84 1015.47 1015.26 1014.85 1014.50 1014.19 1013.85 1013.58 1013.28 1012.96 1012.31
1011.58 1010.22 1009.78 1009.48 1009.98 1010.20 1010.07 1010.04 1009.97 1009.73 1008.83 1008.53 1008.80 1009.76 1011.68 1012.27 1012.87 1013.16 1013.48 1013.76 1014.20 1014.83 1015.76 1016.59 1017.04 1017.27 1017.37 1017.45 1017.52 1017.40 1017.32 1017.24 1017.05 1016.94 1016.93 1016.67 1016.32 1016.02 1015.75 1015.48 1015.19 1014.92 1014.51 1013.96 1013.73 1013.46 1013.05 1012.71 1012.55
1012.07 1010.79 1010.61 1010.59 1011.01 1011.10 1010.69 1010.28 1010.02 1009.71 1008.56 1009.16 1009.06 1009.55 1010.57 1011.81 1012.20 1012.59 1012.90 1013.54 1014.07 1014.76 1015.65 1016.63 1017.18 1017.33 1017.60 1017.62 1017.60 1017.61 1017.47 1017.41 1017.05 1017.06 1016.88 1016.71 1016.34 1016.06 1015.88 1015.70 1015.36 1015.07 1014.69 1014.43 1014.04 1013.68 1013.29 1012.93 1012.70
1012.18 1011.28 1011.19 1011.27 1011.38 1011.43 1011.15 1010.67 1010.27 1009.16 1008.68 1008.91 1009.49 1010.29 1010.51 1011.11 1011.58 1012.16 1012.58 1013.20 1014.14 1015.02 1015.70 1016.73 1017.29 1017.52 1017.79 1017.82 1017.86 1017.84 1017.82 1017.67 1017.60 1017.20 1017.01 1016.92 1016.71 1016.31 1015.93 1015.63 1015.36 1014.98 1014.69 1014.32 1013.97 1013.67 1013.28 1012.99 1012.64
1012.58 1012.18 1011.62 1011.27 1011.25 1011.22 1011.24 1010.46 1010.48 1008.52 1008.34 1008.64 1008.78 1009.62 1010.38 1010.61 1011.02 1011.74 1012.46 1013.07 1014.01 1015.00 1015.78 1016.82 1017.47 1017.74 1017.92 1017.94 1018.05 1018.02 1017.91 1017.88 1017.74 1017.45 1017.24 1017.21 1016.94 1016.54 1016.11 1015.63 1015.22 1014.86 1014.60 1014.45 1014.31 1014.11 1013.66 1013.04 1012.51
1012.91 1012.31 1011.18 1010.65 1010.94 1011.43 1011.71 1010.48 1009.07 1008.55 1008.44 1008.76 1008.71 1009.00 1009.49 1010.14 1010.87 1011.34 1012.19 1013.15 1013.98 1014.92 1016.00 1016.97 1017.56 1018.03 1018.04 1017.95 1017.95 1017.86 1017.80 1017.77 1017.52 1017.38 1017.28 1017.20 1017.05 1016.71 1016.24 1015.68 1015.21 1014.75 1014.50 1014.45 1014.26 1013.81 1013.42 1012.87 1012.22
1012.82 1012.00 1010.83 1010.81 1011.42 1011.96 1012.10 1008.99 1007.87 1008.53 1008.52 1008.29 1008.38 1008.52 1008.92 1009.80 1010.72 1011.49 1012.20 1013.13 1014.00 1015.04 1016.24 1017.14 1017.62 1018.06 1018.13 1018.12 1018.11 1017.89 1017.73 1017.62 1017.47 1017.30 1017.23 1017.20 1017.16 1016.96 1016.55 1015.97 1015.36 1014.87 1014.70 1014.51 1014.13 1013.68 1013.13 1012.64 1012.14
1011.93 1011.12 1010.51 1010.33 1011.34 1011.79 1011.90 1009.39 1008.32 1008.67 1008.57 1008.25 1008.03 1008.13 1008.67 1009.57 1010.67 1011.78 1012.59 1013.36 1014.32 1015.18 1016.20 1017.14 1017.70 1017.96 1018.18 1018.30 1018.25 1017.99 1017.77 1017.63 1017.45 1017.26 1017.18 1017.07 1017.08 1016.96 1016.66 1016.23 1015.67 1015.31 1014.97 1014.66 1014.44 1014.25 1013.76 1012.93 1012.20
1011.54 1011.23 1011.09 1011.00 1011.02 1011.61 1011.21 1009.56 1008.90 1008.08 1007.68 1007.46 1007.32 1007.71 1008.32 1009.04 1010.22 1011.63 1013.12 1013.83 1014.72 1015.66 1016.54 1017.26 1017.76 1018.04 1018.21 1018.21 1018.02 1017.71 1017.44 1017.20 1017.11 1017.03 1017.03 1017.08 1017.05 1016.87 1016.57 1016.10 1015.63 1015.30 1014.91 1014.57 1014.57 1014.45 1014.08 1013.47 1012.60
1012.97 1012.65 1011.97 1011.59 1011.34 1011.50 1010.83 1009.35 1008.39 1007.66 1007.39 1007.21 1007.21 1007.52 1008.47 1009.74 1011.94 1012.76 1014.10 1014.96 1015.53 1016.14 1016.82 1017.42 1017.78 1017.93 1018.23 1018.21 1018.09 1017.77 1017.54 1017.26 1017.07 1016.96 1017.07 1017.12 1016.97 1016.75 1016.54 1015.93 1015.52 1015.28 1014.99 1014.46 1014.07 1014.07 1013.89 1013.43 1012.87
1013.45 1013.14 1012.58 1011.95 1012.48 1012.58 1011.01 1009.25 1008.11 1007.44 1007.17 1007.59 1008.27 1008.77 1009.87 1011.16 1012.83 1013.96 1014.73 1015.49 1015.97 1016.39 1016.98 1017.45 1017.74 1018.11 1018.41 1018.52 1018.55 1018.46 1018.05 1017.60 1017.36 1017.14 1016.91 1016.79 1016.73 1016.64 1016.33 1015.92 1015.79 1015.64 1015.21 1014.79 1014.34 1014.16 1013.77 1013.32 1012.76
1014.07 1013.77 1013.50 1013.48 1013.09 1012.08 1011.63 1008.84 1007.54 1007.89 1008.28 1009.12 1009.99 1010.78 1011.47 1012.35 1013.46 1014.59 1015.31 1015.76 1016.28 1016.68 1017.08 1017.63 1017.94 1018.33 1018.50 1018.66 1018.57 1018.20 1017.84 1017.31 1016.84 1016.53 1016.46 1016.47 1016.59 1016.57 1016.43 1016.22 1016.20 1016.08 1015.68 1015.13 1014.56 1014.25 1013.87 1013.16 1012.56
1015.00 1014.89 1014.86 1014.62 1014.26 1012.82 1012.73 1010.02 1008.24 1007.55 1008.47 1009.73 1010.65 1011.34 1012.41 1013.29 1014.07 1014.89 1015.43 1016.06 1016.58 1016.99 1017.49 1017.86 1018.12 1018.42 1018.52 1018.64 1018.54 1018.29 1018.04 1017.59 1017.17 1017.12 1016.91 1016.78 1016.62 1016.46 1016.42 1016.38 1016.27 1016.01 1015.73 1015.19 1014.73 1014.15 1013.62 1013.31 1012.57
1015.80 1015.85 1015.53 1015.24 1015.00 1014.42 1012.33 1012.26 1008.46 1008.63 1009.57 1010.63 1011.48 1012.39 1013.29 1014.19 1014.79 1015.39 1015.99 1016.56 1016.91 1017.35 1017.57 1017.79 1018.04 1018.22 1018.38 1018.55 1018.66 1018.50 1018.13 1017.77 1017.50 1017.30 1016.96 1016.68 1016.53 1016.41 1016.48 1016.41 1016.19 1015.89 1015.59 1015.33 1015.05 1014.74 1014.20 1013.60 1012.99
1016.77 1016.24 1015.50 1015.63 1015.48 1014.69 1013.15 1012.59 1009.64 1010.45 1011.55 1011.73 1012.43 1013.13 1014.03 1014.61 1015.04 1015.54 1016.25 1016.95 1017.13 1017.40 1017.70 1017.82 1018.02 1018.19 1018.41 1018.62 1018.65 1018.53 1018.32 1017.98 1017.65 1017.35 1017.11 1016.78 1016.66 1016.70 1016.67 1016.57 1016.33 1016.04 1015.78 1015.44 1015.09 1014.79 1014.42 1013.89 1013.26
1017.22 1016.63 1015.81 1015.62 1015.30 1013.77 1013.68 1013.33 1011.19 1011.93 1012.71 1013.51 1013.93 1014.16 1014.55 1014.77 1015.11 1015.54 1015.97 1016.53 1016.88 1017.34 1017.61 1017.95 1018.21 1018.36 1018.57 1018.73 1018.69 1018.59 1018.42 1018.23 1017.94 1017.59 1017.22 1017.10 1017.01 1016.80 1016.47 1016.30 1016.24 1015.94 1015.48 1015.17 1014.91 1014.55 1014.29 1013.83 1013.32
1017.56 1017.64 1016.80 1015.72 1014.65 1013.72 1013.89 1012.70 1012.30 1013.12 1013.84 1014.34 1014.80 1015.11 1014.66 1014.80 1015.27 1015.83 1016.53 1016.83 1017.20 1017.69 1017.83 1018.08 1018.32 1018.52 1018.66 1018.77 1018.65 1018.61 1018.45 1018.34 1017.98 1017.66 1017.49 1017.39 1017.07 1016.73 1016.58 1016.33 1016.19 1015.82 1015.32 1015.05 1014.78 1014.37 1013.96 1013.59 1013.11
1018.64 1018.22 1017.99 1017.10 1016.11 1015.16 1012.79 1012.38 1013.03 1013.61 1014.42 1014.76 1015.10 1014.89 1015.02 1015.26 1015.66 1016.28 1016.75 1017.29 1017.77 1017.90 1018.18 1018.49 1018.69 1018.71 1018.84 1018.85 1018.75 1018.55 1018.35 1018.21 1018.00 1017.85 1017.77 1017.44 1017.14 1016.74 1016.40 1016.13 1015.69 1015.32 1015.09 1014.79 1014.44 1013.97 1013.42 1013.11 1012.63
1019.33 1019.07 1018.44 1017.74 1016.31 1014.31 1012.57 1012.71 1013.00 1014.31 1015.31 1015.48 1015.51 1015.48 1015.52 1015.62 1015.89 1016.40 1017.03 1017.54 1017.87 1018.25 1018.59 1018.84 1018.94 1019.07 1019.20 1019.02 1018.75 1018.44 1018.21 1018.06 1017.96 1017.80 1017.57 1017.33 1017.11 1016.81 1016.38 1015.78 1015.24 1014.88 1014.58 1014.25 1014.01 1013.55 1013.04 1012.59 1011.95
1019.78 1019.02 1018.75 1018.14 1017.13 1015.57 1013.96 1013.21 1013.90 1014.61 1015.64 1015.94 1015.82 1015.68 1015.73 1015.83 1016.16 1016.57 1017.01 1017.50 1018.14 1018.80 1019.12 1019.18 1019.15 1019.24 1019.16 1018.98 1018.77 1018.41 1018.14 1017.99 1017.86 1017.66 1017.41 1017.14 1016.75 1016.43 1015.96 1015.54 1015.19 1014.60 1014.00 1013.64 1013.34 1012.91 1012.38 1011.79 1011.13
1019.42 1018.92 1018.50 1017.94 1017.36 1016.62 1016.20 1014.65 1014.81 1015.49 1015.96 1016.17 1015.97 1015.78 1015.69 1015.86 1016.22 1016.52 1016.97 1017.66 1018.36 1018.79 1019.01 1019.05 1019.06 1019.13 1019.01 1018.92 1018.68 1018.36 1018.08 1017.89 1017.64 1017.44 1017.21 1016.86 1016.37 1015.97 1015.55 1015.34 1014.87 1014.30 1013.72 1013.30 1012.92 1012.50 1011.98 1011.42 1010.81
Wind_Speed
11 6 4 5 7 7 11 11 10 4 4 2 4 4 4 6 3 3 8 9 11 10 9 11 12 13 13 14 15 15 15 15 15 15 15 16 16 15 14 15 16 12 6 13 12 11 11 11 11
4 3 5 3 8 11 10 11 8 8 6 3 3 4 5 2 7 12 11 10 10 8 9 10 11 11 12 13 14 14 14 14 14 14 13 14 15 16 16 15 15 16 12 6 12 12 11 11 11
5 5 6 5 9 13 10 4 6 4 2 5 4 3 4 5 6 14 12 13 10 8 9 9 10 11 12 13 13 13 13 13 14 14 14 14 14 15 16 15 14 14 15 11 8 11 10 11 12
5 5 5 8 14 10 8 3 3 4 4 4 4 5 4 6 8 8 14 12 10 8 7 10 10 11 11 13 13 14 13 13 13 13 14 15 14 14 15 14 14 14 14 12 13 10 9 10 10
5 4 9 9 15 13 4 8 6 8 5 7 7 3 2 6 7 13 13 10 9 7 6 8 10 11 12 13 13 14 13 13 13 13 14 15 15 14 13 14 14 13 13 14 13 12 11 8 8
6 4 9 12 14 10 4 9 9 10 9 4 5 6 4 9 11 12 11 9 8 7 5 5 8 9 10 11 13 14 13 14 14 14 14 15 15 13 13 13 12 13 13 13 13 13 14 11 9
10 7 14 15 15 14 10 1 10 10 12 10 3 8 5 10 11 12 11 9 7 6 5 4 4 5 6 9 12 13 13 14 14 13 13 16 14 13 13 14 11 14 14 14 13 14 14 14 12
7 5 10 7 9 12 6 2 3 9 10 6 1 6 6 13 13 11 10 9 8 6 4 4 4 5 6 5 10 9 10 11 11 12 12 14 12 12 12 13 14 16 15 14 13 14 13 13 14
3 7 9 13 7 3 2 5 5 3 7 4 7 4 5 14 14 12 10 9 8 6 4 3 4 5 5 4 4 4 6 8 9 10 13 11 8 10 11 13 14 15 15 15 15 13 13 13 14
7 7 8 7 6 7 4 6 5 5 10 13 11 6 5 15 13 13 13 12 11 9 6 3 3 4 3 3 4 4 5 6 6 8 9 7 9 9 9 10 10 13 12 15 14 13 11 12 7
6 7 7 5 6 6 9 9 8 7 13 14 13 14 12 14 14 13 13 11 11 9 6 5 3 2 3 3 4 3 3 4 5 8 9 8 7 6 7 6 6 7 9 7 9 9 7 8 7
7 13 11 6 2 4 8 7 8 13 21 3 8 5 15 15 14 14 13 12 9 9 7 6 3 2 3 3 3 4 5 6 5 7 8 7 6 7 7 6 8 6 6 8 8 5 7 9 10
13 11 8 10 9 11 12 15 14 18 17 14 7 5 11 13 14 12 12 10 9 10 8 6 4 3 1 2 3 4 4 5 7 7 8 7 8 8 8 7 7 7 7 7 7 7 8 8 9
5 9 14 11 13 10 10 14 4 15 12 11 16 15 13 14 13 12 12 11 11 9 9 7 5 2 0 2 3 3 4 5 6 7 8 10 8 8 8 8 8 8 7 7 8 8 9 8 9
6 10 12 13 8 7 5 12 17 18 15 9 10 12 13 15 12 13 12 11 11 9 8 7 5 3 2 4 4 4 4 6 6 7 9 9 9 10 11 9 8 8 7 9 9 9 9 9 9
6 6 7 7 4 3 4 14 5 4 4 8 9 11 11 11 12 9 8 9 9 9 9 7 4 3 2 4 4 5 6 7 7 7 7 9 9 10 10 9 9 9 8 8 8 9 9 9 9
8 9 12 9 2 2 8 12 4 2 6 11 12 9 8 8 7 7 7 8 9 9 8 6 4 1 3 4 5 6 7 6 7 7 6 8 8 10 9 8 9 10 8 8 7 9 9 9 9
9 10 12 11 3 6 14 22 20 21 20 18 17 14 14 14 9 5 6 6 7 7 6 5 2 2 4 4 5 6 6 6 6 6 6 8 8 10 9 9 10 9 9 8 7 9 9 10 10
9 12 16 16 16 9 16 20 20 19 18 18 17 14 12 10 9 3 6 5 7 6 6 4 2 3 4 5 6 6 7 7 7 6 9 9 8 9 10 8 9 9 9 10 9 9 11 9 10
8 12 14 11 6 3 14 24 25 23 16 9 7 4 2 4 5 4 6 6 6 6 4 3 2 3 4 4 5 6 7 7 8 8 8 8 9 9 10 10 9 11 10 11 9 10 9 9 9
9 10 12 14 15 15 13 16 6 3 4 5 6 6 5 4 6 6 6 5 4 4 3 1 3 4 5 6 5 5 7 7 7 6 7 8 9 10 10 10 9 10 8 9 9 10 12 10 10
7 4 5 8 8 6 5 10 13 6 5 3 6 6 6 5 4 3 3 4 4 2 0 2 3 5 5 5 6 7 7 8 7 8 7 8 10 10 10 10 11 9 8 9 8 10 9 9 10
3 5 6 7 7 10 5 6 5 3 7 7 7 6 6 4 2 0 2 1 2 2 3 4 4 5 5 5 6 6 8 7 7 7 10 9 9 9 9 9 10 10 7 8 10 11 12 9 9
5 6 9 3 4 6 1 5 3 5 3 7 7 6 4 4 4 3 2 3 4 4 5 4 5 5 5 6 7 8 9 9 8 9 8 7 6 7 9 9 9 8 8 11 8 9 12 10 10
2 4 3 4 5 3 2 5 7 3 3 4 5 7 7 6 6 6 6 5 4 5 4 4 5 6 6 6 7 8 9 10 11 10 7 8 7 6 8 8 9 8 9 9 9 9 10 10 9
1 2 4 6 4 5 4 6 2 2 0 3 4 5 7 8 6 5 5 4 4 4 5 5 6 6 6 7 7 7 8 6 7 8 8 7 7 8 9 8 9 11 11 10 9 8 8 9 9
3 4 3 5 2 4 4 4 5 4 5 3 5 9 10 8 7 5 4 4 4 4 5 5 6 6 7 7 7 8 7 8 8 10 9 8 9 8 9 10 10 9 9 9 9 8 10 10 10
4 2 3 4 5 5 4 5 4 7 3 11 9 10 9 8 7 5 4 4 3 3 4 6 5 5 7 8 7 7 7 8 7 7 9 9 9 10 10 11 9 8 8 8 9 9 9 9 9
4 4 4 3 4 4 4 2 2 10 4 7 9 8 8 9 7 5 4 3 2 3 4 5 5 5 6 6 7 8 8 8 7 7 8 8 7 8 8 9 10 9 9 8 9 10 10 10 10
4 3 5 4 5 2 3 5 2 4 2 5 10 10 10 8 7 5 4 3 4 4 4 4 4 5 5 5 6 7 7 7 7 7 7 6 8 8 9 9 10 10 9 8 8 9 8 9 9
Wind_Direction
276 245 244 220 231 235 260 242 257 224 221 51 341 270 281 33 281 15 123 121 123 114 103 77 54 52 51 44 41 37 33 31 26 22 21 18 14 15 15 12 11 6 305 234 229 236 237 235 229
289 241 229 245 251 235 254 213 212 248 74 160 164 225 243 145 71 120 136 144 126 111 88 67 56 54 51 45 41 35 32 27 23 19 15 14 8 13 13 11 8 4 5 274 244 239 243 241 236
243 246 244 234 238 247 270 69 282 78 164 207 193 282 356 84 106 143 111 143 133 113 91 68 52 47 48 43 38 33 32 27 19 13 9 11 10 8 10 8 5 9 358 353 303 262 253 250 241
196 197 231 250 255 256 284 355 332 171 193 215 266 215 114 25 140 124 142 146 133 117 92 69 50 46 43 38 34 28 26 22 18 12 7 2 2 6 4 5 6 353 353 352 349 328 299 276 268
215 260 247 240 260 271 287 284 274 245 235 207 200 209 106 135 103 130 147 152 140 123 103 76 51 43 41 35 30 25 22 17 14 9 3 358 356 355 359 356 358 358 346 347 344 336 336 315 283
209 274 244 250 262 253 243 273 254 252 242 185 220 245 109 123 156 154 154 155 148 136 121 98 92 53 48 42 30 21 17 13 10 5 0 353 347 348 348 349 347 351 345 343 341 332 328 323 315
259 234 258 270 279 277 269 353 238 251 247 223 307 239 97 167 166 157 164 155 155 140 134 105 58 43 63 48 25 17 12 8 7 4 359 350 341 342 341 343 339 340 339 337 337 328 326 317 303
274 265 261 251 269 292 92 219 324 269 257 77 236 235 203 162 157 164 165 169 168 153 143 101 70 40 22 22 50 7 4 2 360 1 359 345 332 345 346 335 342 332 329 327 325 324 321 314 310
284 247 255 258 277 324 107 244 143 349 264 216 196 283 77 136 154 168 181 187 185 180 157 104 60 46 22 13 48 338 7 349 354 358 357 344 345 335 338 331 325 324 323 321 313 310 312 309 290
233 247 274 358 320 286 301 276 303 254 224 230 221 188 149 151 175 184 192 199 200 192 175 153 85 48 9 1 2 356 355 354 353 352 351 345 332 332 319 304 314 307 317 313 304 302 299 277 277
199 248 9 276 298 303 289 273 237 258 258 245 235 217 187 187 193 203 207 212 202 197 177 172 145 70 20 16 344 360 350 355 341 346 342 335 331 330 328 322 323 329 316 316 322 314 306 311 301
258 244 277 291 296 271 260 292 250 243 251 4 336 293 171 201 206 212 215 211 202 192 187 158 155 126 53 350 7 350 346 344 340 338 333 332 328 325 319 314 317 312 320 314 307 306 299 295 287
243 269 281 267 267 261 272 258 268 267 262 259 219 217 201 210 215 217 222 208 196 201 180 177 170 156 63 353 358 346 337 332 331 321 323 328 318 312 311 310 304 305 307 302 307 306 300 294 283
351 293 278 278 267 264 258 272 278 255 262 261 247 226 233 228 221 214 212 208 196 197 182 162 171 156 340 337 343 328 323 324 316 314 315 315 309 305 301 301 303 298 299 304 306 299 295 290 288
284 288 280 248 251 259 288 254 232 259 263 248 259 249 239 228 232 222 203 209 198 189 174 176 172 167 294 318 336 321 317 315 311 311 308 306 305 307 304 300 296 297 301 303 293 292 288 282 278
264 255 283 108 156 139 235 275 269 50 302 263 254 251 231 226 219 221 208 195 181 173 170 168 155 183 319 335 324 314 316 311 307 303 301 301 300 299 299 298 298 302 305 297 295 297 298 291 285
200 285 287 302 136 300 229 295 318 201 286 277 281 256 233 211 194 197 201 182 171 170 171 169 182 206 339 316 309 306 301 300 301 299 299 299 299 296 294 291 293 298 294 290 302 308 301 292 286
315 290 290 275 180 238 273 270 274 274 273 273 269 260 248 233 225 184 166 164 157 153 159 160 188 312 329 312 307 301 300 296 305 302 298 304 299 294 290 290 287 291 289 287 277 281 289 295 298
295 286 285 285 293 289 273 282 286 281 277 267 262 253 248 243 53 101 138 148 153 157 166 173 266 345 337 327 323 316 312 310 303 306 305 297 295 302 293 288 295 283 278 282 289 284 287 287 284
272 277 282 295 35 294 290 291 283 279 283 313 323 325 359 92 90 123 154 157 174 163 169 207 255 321 333 318 323 305 308 303 304 296 285 286 295 305 303 306 310 307 302 296 289 286 288 283 283
268 269 291 300 318 272 290 277 251 141 124 91 86 84 85 108 137 152 156 164 158 196 198 265 332 324 316 313 304 296 293 280 285 295 315 312 312 302 299 302 296 290 292 286 298 288 287 287 284
287 20 305 297 320 304 360 292 287 302 97 113 119 102 81 82 82 105 166 185 202 226 236 275 312 308 305 317 301 299 294 291 300 306 304 307 304 303 302 304 298 287 299 299 301 293 292 298 292
301 319 293 301 282 324 248 247 281 133 88 89 77 77 76 59 29 316 227 246 268 250 277 289 295 300 300 297 290 287 282 290 303 298 299 302 302 309 306 299 297 300 299 300 297 295 290 292 289
301 292 269 297 273 247 98 253 333 21 37 79 73 71 50 4 330 281 244 248 239 235 257 280 296 292 296 287 278 277 286 294 294 298 302 297 308 305 303 297 292 290 289 285 290 292 293 290 286
33 314 272 222 197 291 149 228 323 61 49 8 347 355 347 325 315 321 290 264 261 264 273 292 299 295 295 290 290 295 295 293 292 290 291 299 300 293 291 301 297 295 300 290 285 282 279 284 284
321 290 291 288 298 339 145 244 119 72 159 268 282 283 296 347 337 323 298 291 280 270 292 302 298 293 300 298 300 296 290 285 289 287 292 293 285 285 291 289 286 286 286 288 289 290 279 275 274
126 215 52 286 151 255 229 221 113 112 50 333 339 343 350 345 328 306 298 268 265 287 300 302 293 307 309 307 303 292 290 286 289 294 295 287 291 291 293 289 287 281 282 283 283 272 269 268 269
254 359 207 185 268 254 218 247 180 147 33 351 349 350 338 331 317 302 275 261 258 287 303 297 302 301 302 297 297 296 296 288 288 288 286 290 295 294 292 290 283 288 285 281 273 272 269 267 270
173 206 222 307 258 287 306 106 292 136 94 330 326 326 318 315 306 288 274 280 321 286 279 282 293 298 297 302 304 300 301 300 295 288 289 295 288 283 281 288 292 285 281 276 278 279 280 276 276
290 288 218 246 166 250 320 277 29 96 323 300 309 318 323 301 296 289 282 263 254 259 263 272 277 274 277 293 300 301 303 302 296 295 297 294 291 294 296 298 295 297 292 287 286 287 284 283 280